Hourly Data Report for December 25, 2005

TORONTO CITY
ONTARIO

43°40'00.000" N
79°24'00.000" W
112.50 m
6158355
71508
XTO

Download Data

Hourly Data (December 2005)
Hourly Data Report for December 25, 2005
TIME
LST
Temp Definition
°C
Dew Point Definition
°C
Rel Hum Definition
%
Precip. Amount Definition
mm

Wind Dir Definition
10's deg

Wind Spd Definition
km/h
Visibility Definition
km
Stn Press Definition
kPa
Hmdx Definition


Wind Chill Definition


Weather Definition


00:00 4.3 3.3 93   LegendMM LegendMM   99.40     LegendNANA
01:00 4.3 3.5 95   LegendMM LegendMM   99.33     LegendNANA
02:00 4.2 3.4 95   LegendMM LegendMM   99.32     LegendNANA
03:00 4.3 3.4 94   LegendMM LegendMM   99.28     LegendNANA
04:00 4.2 3.2 93   LegendMM LegendMM   99.20     LegendNANA
05:00 4.4 3.1 91   LegendMM LegendMM   99.15     LegendNANA
06:00 4.2 2.9 91   LegendMM LegendMM   99.12     LegendNANA
07:00 4.0 2.7 91   LegendMM LegendMM   99.09     LegendNANA
08:00 3.9 2.8 93   LegendMM LegendMM   99.15     LegendNANA
09:00 3.9 3.1 95   LegendMM LegendMM   99.06     LegendNANA
10:00 3.9 3.1 95   LegendMM LegendMM   99.04     LegendNANA
11:00 4.4 3.0 91   LegendMM LegendMM   98.98     LegendNANA
12:00 4.8 2.3 84   LegendMM LegendMM   98.85     LegendNANA
13:00 4.8 2.0 82   LegendMM LegendMM   98.70     LegendNANA
14:00 4.5 1.6 81   LegendMM LegendMM   98.64     LegendNANA
15:00 4.0 2.2 88   LegendMM LegendMM   98.65     LegendNANA
16:00 4.1 2.0 86   LegendMM LegendMM   98.57     LegendNANA
17:00 3.8 2.2 89   LegendMM LegendMM   98.55     LegendNANA
18:00 3.9 1.9 87   LegendMM LegendMM   98.47     LegendNANA
19:00 3.7 1.9 88   LegendMM LegendMM   98.51     LegendNANA
20:00 3.2 2.2 93   LegendMM LegendMM   98.50     LegendNANA
21:00 1.1 0.4 95   LegendMM LegendMM   98.43     LegendNANA
22:00 1.1 0.7 97   LegendMM LegendMM   98.40     LegendNANA
23:00 1.1 0.8 98   LegendMM LegendMM   98.34     LegendNANA

Notes on Data Quality.

Legend

  • E = Estimated
  • M = Missing
  • NA = Not Available*
  • [empty] = Indicates an unobserved value
Date modified: